Year,Month,Day,Hour,Minute,Value (Times are PST for temperature in C)
2016,06,15,00,00,10.40
2016,06,15,00,01,10.40
2016,06,15,00,02,10.40
2016,06,15,00,03,10.40
2016,06,15,00,04,10.40
2016,06,15,00,05,10.40
2016,06,15,00,06,10.30
2016,06,15,00,07,10.30
2016,06,15,00,08,10.30
2016,06,15,00,09,10.30
2016,06,15,00,10,10.30
2016,06,15,00,11,10.30
2016,06,15,00,12,10.30
2016,06,15,00,13,10.30
2016,06,15,00,14,10.30
2016,06,15,00,15,10.30
2016,06,15,00,16,10.30
2016,06,15,00,17,10.30
2016,06,15,00,18,10.30
2016,06,15,00,19,10.30
2016,06,15,00,20,10.30
2016,06,15,00,21,10.30
2016,06,15,00,22,10.30
2016,06,15,00,24,10.30
2016,06,15,00,26,10.30
2016,06,15,00,27,10.30
2016,06,15,00,28,10.30
2016,06,15,00,29,10.30
2016,06,15,00,31,10.30
2016,06,15,00,32,10.30
2016,06,15,00,33,10.30
2016,06,15,00,34,10.30
2016,06,15,00,36,10.30
2016,06,15,00,37,10.30
2016,06,15,00,38,10.30
2016,06,15,00,39,10.30
2016,06,15,00,41,10.30
2016,06,15,00,42,10.30
2016,06,15,00,43,10.30
2016,06,15,00,44,10.30
2016,06,15,00,46,10.30
2016,06,15,00,47,10.30
2016,06,15,00,48,10.30
2016,06,15,00,49,10.30
2016,06,15,00,51,10.30
2016,06,15,00,52,10.30
2016,06,15,00,53,10.30
2016,06,15,00,54,10.30
2016,06,15,00,56,10.30
2016,06,15,00,57,10.30
2016,06,15,00,58,10.30
2016,06,15,00,59,10.30
2016,06,15,01,01,10.30
2016,06,15,01,02,10.30
2016,06,15,01,03,10.30
2016,06,15,01,04,10.30
2016,06,15,01,06,10.30
2016,06,15,01,07,10.30
2016,06,15,01,08,10.30
2016,06,15,01,09,10.30
2016,06,15,01,11,10.30
2016,06,15,01,12,10.30
2016,06,15,01,13,10.30
2016,06,15,01,14,10.30
2016,06,15,01,16,10.30
2016,06,15,01,17,10.30
2016,06,15,01,18,10.30
2016,06,15,01,19,10.30
2016,06,15,01,21,10.30
2016,06,15,01,22,10.20
2016,06,15,01,23,10.20
2016,06,15,01,24,10.20
2016,06,15,01,26,10.20
2016,06,15,01,27,10.20
2016,06,15,01,28,10.20
2016,06,15,01,29,10.20
2016,06,15,01,31,10.20
2016,06,15,01,32,10.20
2016,06,15,01,33,10.20
2016,06,15,01,34,10.20
2016,06,15,01,36,10.20
2016,06,15,01,37,10.20
2016,06,15,01,38,10.20
2016,06,15,01,39,10.20
2016,06,15,01,40,10.20
2016,06,15,01,41,10.20
2016,06,15,01,42,10.20
2016,06,15,01,43,10.20
2016,06,15,01,44,10.20
2016,06,15,01,45,10.20
2016,06,15,01,46,10.20
2016,06,15,01,47,10.10
2016,06,15,01,48,10.10
2016,06,15,01,49,10.10
2016,06,15,01,50,10.10
2016,06,15,01,51,10.10
2016,06,15,01,52,10.10
2016,06,15,01,53,10.10
2016,06,15,01,54,10.10
2016,06,15,01,55,10.10
2016,06,15,01,56,10.10
2016,06,15,01,57,10.10
2016,06,15,01,58,10.10
2016,06,15,01,59,10.10
2016,06,15,02,00,10.10
2016,06,15,02,01,10.10
2016,06,15,02,02,10.10
2016,06,15,02,03,10.10
2016,06,15,02,04,10.10
2016,06,15,02,06,10.10
2016,06,15,02,07,10.10
2016,06,15,02,08,10.10
2016,06,15,02,09,10.10
2016,06,15,02,10,10.20
2016,06,15,02,11,10.20
2016,06,15,02,12,10.20
2016,06,15,02,13,10.20
2016,06,15,02,14,10.20
2016,06,15,02,15,10.30
2016,06,15,02,16,10.30
2016,06,15,02,17,10.30
2016,06,15,02,18,10.30
2016,06,15,02,19,10.30
2016,06,15,02,20,10.30
2016,06,15,02,21,10.40
2016,06,15,02,22,10.40
2016,06,15,02,23,10.40
2016,06,15,02,24,10.40
2016,06,15,02,25,10.40
2016,06,15,02,26,10.40
2016,06,15,02,27,10.40
2016,06,15,02,28,10.40
2016,06,15,02,29,10.40
2016,06,15,02,30,10.60
2016,06,15,02,31,10.60
2016,06,15,02,32,10.60
2016,06,15,02,33,10.70
2016,06,15,02,34,10.70
2016,06,15,02,35,10.70
2016,06,15,02,36,10.70
2016,06,15,02,37,10.80
2016,06,15,02,38,10.80
2016,06,15,02,39,10.80
2016,06,15,02,40,10.80
2016,06,15,02,41,10.80
2016,06,15,02,42,10.70
2016,06,15,02,43,10.70
2016,06,15,02,44,10.60
2016,06,15,02,45,10.60
2016,06,15,02,46,10.60
2016,06,15,02,47,10.60
2016,06,15,02,48,10.60
2016,06,15,02,49,10.60
2016,06,15,02,50,10.60
2016,06,15,02,52,10.60
2016,06,15,02,53,10.60
2016,06,15,02,54,10.60
2016,06,15,02,56,10.60
2016,06,15,02,57,10.60
2016,06,15,02,58,10.60
2016,06,15,02,59,10.70
2016,06,15,03,01,10.70
2016,06,15,03,02,10.70
2016,06,15,03,03,10.70
2016,06,15,03,04,10.70
2016,06,15,03,06,10.70
2016,06,15,03,07,10.70
2016,06,15,03,08,10.70
2016,06,15,03,09,10.60
2016,06,15,03,11,10.60
2016,06,15,03,12,10.60
2016,06,15,03,13,10.60
2016,06,15,03,14,10.40
2016,06,15,03,16,10.40
2016,06,15,03,17,10.40
2016,06,15,03,18,10.40
2016,06,15,03,19,10.30
2016,06,15,03,21,10.30
2016,06,15,03,22,10.20
2016,06,15,03,23,10.20
2016,06,15,03,24,10.20
2016,06,15,03,26,10.20
2016,06,15,03,27,10.20
2016,06,15,03,28,10.20
2016,06,15,03,29,10.20
2016,06,15,03,31,10.20
2016,06,15,03,32,10.20
2016,06,15,03,33,10.20
2016,06,15,03,34,10.20
2016,06,15,03,36,10.10
2016,06,15,03,37,10.10
2016,06,15,03,38,10.10
2016,06,15,03,39,10.10
2016,06,15,03,41,10.10
2016,06,15,03,42,10.10
2016,06,15,03,43,10.10
2016,06,15,03,44,10.10
2016,06,15,03,46,10.10
2016,06,15,03,47,10.10
2016,06,15,03,48,10.10
2016,06,15,03,49,10.10
2016,06,15,03,51,10.10
2016,06,15,03,52,10.10
2016,06,15,03,53,10.10
2016,06,15,03,54,10.10
2016,06,15,03,56,10.20
2016,06,15,03,57,10.20
2016,06,15,03,58,10.20
2016,06,15,03,59,10.20
2016,06,15,04,01,10.20
2016,06,15,04,02,10.20
2016,06,15,04,03,10.20
2016,06,15,04,04,10.20
2016,06,15,04,06,10.20
2016,06,15,04,07,10.20
2016,06,15,04,08,10.20
2016,06,15,04,09,10.20
2016,06,15,04,10,10.20
2016,06,15,04,11,10.10
2016,06,15,04,12,10.10
2016,06,15,04,13,10.10
2016,06,15,04,14,10.10
2016,06,15,04,15,10.10
2016,06,15,04,16,10.10
2016,06,15,04,17,10.10
2016,06,15,04,18,10.10
2016,06,15,04,19,10.10
2016,06,15,04,20,10.10
2016,06,15,04,21,9.90
2016,06,15,04,22,9.90
2016,06,15,04,23,9.80
2016,06,15,04,24,9.80
2016,06,15,04,25,9.70
2016,06,15,04,26,9.70
2016,06,15,04,27,9.60
2016,06,15,04,28,9.60
2016,06,15,04,29,9.50
2016,06,15,04,30,9.50
2016,06,15,04,31,9.50
2016,06,15,04,32,9.40
2016,06,15,04,33,9.40
2016,06,15,04,34,9.40
2016,06,15,04,35,9.40
2016,06,15,04,36,9.40
2016,06,15,04,37,9.30
2016,06,15,04,38,9.30
2016,06,15,04,39,9.30
2016,06,15,04,40,9.30
2016,06,15,04,41,9.30
2016,06,15,04,42,9.20
2016,06,15,04,43,9.20
2016,06,15,04,44,9.20
2016,06,15,04,45,9.20
2016,06,15,04,46,9.20
2016,06,15,04,47,9.20
2016,06,15,04,48,9.20
2016,06,15,04,49,9.20
2016,06,15,04,50,9.20
2016,06,15,04,51,9.20
2016,06,15,04,52,9.20
2016,06,15,04,53,9.20
2016,06,15,04,54,9.20
2016,06,15,04,55,9.20
2016,06,15,04,56,9.20
2016,06,15,04,57,9.10
2016,06,15,04,58,9.10
2016,06,15,04,59,9.10
2016,06,15,05,00,9.10
2016,06,15,05,01,9.00
2016,06,15,05,02,9.00
2016,06,15,05,03,9.00
2016,06,15,05,04,9.00
2016,06,15,05,05,8.90
2016,06,15,05,06,9.00
2016,06,15,05,07,9.00
2016,06,15,05,08,9.00
2016,06,15,05,09,9.10
2016,06,15,05,10,9.10
2016,06,15,05,11,9.10
2016,06,15,05,12,9.10
2016,06,15,05,13,9.10
2016,06,15,05,14,9.10
2016,06,15,06,31,9.80
2016,06,15,06,32,9.80
2016,06,15,06,33,9.90
2016,06,15,06,34,9.90
2016,06,15,06,36,9.90
2016,06,15,06,37,9.90
2016,06,15,06,38,9.90
2016,06,15,06,39,9.80
2016,06,15,06,40,9.80
2016,06,15,06,41,9.70
2016,06,15,06,42,9.70
2016,06,15,06,43,9.70
2016,06,15,06,44,9.70
2016,06,15,06,45,9.70
2016,06,15,06,46,9.70
2016,06,15,06,47,9.70
2016,06,15,06,48,9.60
2016,06,15,06,49,9.60
2016,06,15,06,50,9.60
2016,06,15,06,51,9.60
2016,06,15,06,52,9.60
2016,06,15,06,53,9.60
2016,06,15,06,54,9.60
2016,06,15,06,55,9.60
2016,06,15,06,56,9.60
2016,06,15,06,57,9.60
2016,06,15,06,58,9.50
2016,06,15,06,59,9.50
2016,06,15,07,00,9.50
2016,06,15,07,01,9.50
2016,06,15,07,02,9.40
2016,06,15,07,03,9.40
2016,06,15,07,04,9.40
2016,06,15,07,05,9.40
2016,06,15,07,06,9.40
2016,06,15,07,07,9.30
2016,06,15,07,08,9.30
2016,06,15,07,09,9.30
2016,06,15,07,10,9.30
2016,06,15,07,11,9.30
2016,06,15,07,12,9.30
2016,06,15,07,13,9.30
2016,06,15,07,14,9.30
2016,06,15,07,15,9.30
2016,06,15,07,16,9.30
2016,06,15,07,17,9.30
2016,06,15,07,18,9.30
2016,06,15,07,19,9.30
2016,06,15,07,20,9.30
2016,06,15,07,21,9.30
2016,06,15,07,22,9.20
2016,06,15,07,23,9.20
2016,06,15,07,24,9.20
2016,06,15,07,25,9.20
2016,06,15,07,26,9.10
2016,06,15,07,27,9.10
2016,06,15,07,28,9.10
2016,06,15,07,29,9.00
2016,06,15,07,30,9.00
2016,06,15,07,31,8.90
2016,06,15,07,32,8.90
2016,06,15,07,33,8.80
2016,06,15,07,34,8.80
2016,06,15,07,35,8.80
2016,06,15,07,36,8.80
2016,06,15,07,37,8.80
2016,06,15,07,38,8.80
2016,06,15,07,39,8.80
2016,06,15,07,40,8.80
2016,06,15,07,41,8.80
2016,06,15,07,42,8.80
2016,06,15,07,43,8.80
2016,06,15,07,44,8.80
2016,06,15,07,45,8.80
2016,06,15,07,46,8.80
2016,06,15,07,47,8.80
2016,06,15,07,48,8.80
2016,06,15,07,49,8.80
2016,06,15,07,50,8.80
2016,06,15,07,51,8.80
2016,06,15,07,52,8.80
2016,06,15,07,53,8.80
2016,06,15,07,54,8.90
2016,06,15,07,55,8.90
2016,06,15,07,56,9.00
2016,06,15,07,57,9.00
2016,06,15,07,58,9.10
2016,06,15,07,59,9.10
2016,06,15,08,00,9.20
2016,06,15,08,31,9.70
2016,06,15,08,32,9.80
2016,06,15,08,33,9.80
2016,06,15,08,34,9.80
2016,06,15,08,36,9.90
2016,06,15,08,37,9.90
2016,06,15,08,38,9.90
2016,06,15,08,39,9.90
2016,06,15,08,40,9.90
2016,06,15,08,41,10.10
2016,06,15,08,42,10.10
2016,06,15,08,43,10.10
2016,06,15,08,44,10.20
2016,06,15,08,45,10.20
2016,06,15,08,46,10.30
2016,06,15,08,47,10.40
2016,06,15,08,48,10.40
2016,06,15,08,49,10.60
2016,06,15,08,50,10.60
2016,06,15,08,51,10.80
2016,06,15,08,52,10.90
2016,06,15,08,53,10.90
2016,06,15,08,54,11.10
2016,06,15,08,55,11.20
2016,06,15,08,56,11.30
2016,06,15,08,57,11.40
2016,06,15,08,58,11.40
2016,06,15,08,59,11.60
2016,06,15,09,00,11.60
2016,06,15,09,01,11.60
2016,06,15,09,02,11.70
2016,06,15,09,03,11.80
2016,06,15,09,04,11.80
2016,06,15,09,05,11.80
2016,06,15,09,06,11.80
2016,06,15,09,07,11.90
2016,06,15,09,08,11.90
2016,06,15,09,09,12.00
2016,06,15,09,10,12.10
2016,06,15,09,11,12.10
2016,06,15,09,12,12.10
2016,06,15,09,13,12.10
2016,06,15,09,14,12.00
2016,06,15,09,15,12.00
2016,06,15,09,16,12.00
2016,06,15,09,17,12.00
2016,06,15,09,18,12.00
2016,06,15,09,19,12.00
2016,06,15,09,20,12.00
2016,06,15,09,21,12.00
2016,06,15,09,22,12.00
2016,06,15,09,23,11.90
2016,06,15,09,24,11.90
2016,06,15,09,25,11.90
2016,06,15,09,26,11.90
2016,06,15,09,27,11.90
2016,06,15,09,28,11.80
2016,06,15,09,29,11.80
2016,06,15,09,30,11.80
2016,06,15,09,31,11.80
2016,06,15,09,32,11.80
2016,06,15,09,33,11.80
2016,06,15,09,34,11.80
2016,06,15,09,35,11.90
2016,06,15,09,36,11.90
2016,06,15,09,37,12.00
2016,06,15,09,38,12.00
2016,06,15,09,39,12.10
2016,06,15,09,40,12.20
2016,06,15,09,41,12.30
2016,06,15,09,42,12.30
2016,06,15,09,43,12.30
2016,06,15,09,44,12.40
2016,06,15,09,45,12.40
2016,06,15,09,46,12.30
2016,06,15,09,47,12.30
2016,06,15,09,48,12.30
2016,06,15,09,49,12.40
2016,06,15,09,50,12.40
2016,06,15,09,51,12.50
2016,06,15,09,52,12.50
2016,06,15,09,53,12.50
2016,06,15,09,54,12.50
2016,06,15,09,55,12.50
2016,06,15,09,56,12.40
2016,06,15,09,57,12.40
2016,06,15,09,58,12.40
2016,06,15,09,59,12.40
2016,06,15,10,00,12.40
2016,06,15,10,01,12.50
2016,06,15,10,02,12.60
2016,06,15,10,03,12.70
2016,06,15,10,04,12.70
2016,06,15,10,05,12.70
2016,06,15,10,07,12.60
2016,06,15,10,08,12.50
2016,06,15,10,09,12.50
2016,06,15,10,11,12.50
2016,06,15,10,12,12.50
2016,06,15,10,13,12.50
2016,06,15,10,14,12.60
2016,06,15,10,16,12.80
2016,06,15,10,17,13.00
2016,06,15,10,18,13.10
2016,06,15,10,19,13.30
2016,06,15,10,21,13.40
2016,06,15,10,22,13.60
2016,06,15,10,23,13.70
2016,06,15,10,24,13.70
2016,06,15,10,26,13.90
2016,06,15,10,27,13.90
2016,06,15,10,28,13.80
2016,06,15,10,29,13.80
2016,06,15,10,31,13.80
2016,06,15,10,32,13.80
2016,06,15,10,33,13.80
2016,06,15,10,34,13.80
2016,06,15,10,36,13.80
2016,06,15,10,37,13.80
2016,06,15,10,38,13.80
2016,06,15,10,39,13.80
2016,06,15,10,41,13.90
2016,06,15,10,42,13.90
2016,06,15,10,43,13.90
2016,06,15,10,44,13.90
2016,06,15,10,46,13.90
2016,06,15,10,47,13.90
2016,06,15,10,48,13.90
2016,06,15,10,49,13.90
2016,06,15,10,51,14.00
2016,06,15,10,52,14.00
2016,06,15,10,53,14.00
2016,06,15,10,54,13.90
2016,06,15,10,56,14.00
2016,06,15,10,57,14.10
2016,06,15,10,58,14.10
2016,06,15,10,59,14.10
2016,06,15,11,01,14.10
2016,06,15,11,02,14.00
2016,06,15,11,03,14.00
2016,06,15,11,04,14.00
2016,06,15,11,06,14.00
2016,06,15,11,07,14.00
2016,06,15,11,08,14.00
2016,06,15,11,09,14.00
2016,06,15,11,11,14.00
2016,06,15,11,12,14.10
2016,06,15,11,13,14.10
2016,06,15,11,14,14.20
2016,06,15,11,16,14.30
2016,06,15,11,17,14.40
2016,06,15,11,18,14.50
2016,06,15,11,19,14.50
2016,06,15,11,21,14.60
2016,06,15,11,22,14.60
2016,06,15,11,23,14.60
2016,06,15,11,24,14.60
2016,06,15,11,25,14.60
2016,06,15,11,26,14.70
2016,06,15,11,27,14.70
2016,06,15,11,28,14.80
2016,06,15,11,29,14.80
2016,06,15,11,30,14.90
2016,06,15,11,31,14.90
2016,06,15,11,32,15.00
2016,06,15,11,33,15.00
2016,06,15,11,34,15.00
2016,06,15,11,36,15.00
2016,06,15,11,37,15.00
2016,06,15,11,38,14.90
2016,06,15,11,39,14.90
2016,06,15,11,40,14.80
2016,06,15,11,41,14.80
2016,06,15,11,42,14.80
2016,06,15,11,43,14.80
2016,06,15,11,44,14.80
2016,06,15,11,45,14.80
2016,06,15,11,46,14.80
2016,06,15,11,47,14.80
2016,06,15,11,48,14.80
2016,06,15,11,49,14.70
2016,06,15,11,50,14.70
2016,06,15,11,51,14.70
2016,06,15,11,52,14.70
2016,06,15,11,53,14.70
2016,06,15,11,54,14.70
2016,06,15,11,55,14.70
2016,06,15,11,56,14.70
2016,06,15,11,57,14.70
2016,06,15,11,58,14.70
2016,06,15,11,59,14.80
2016,06,15,12,00,14.80
2016,06,15,12,01,14.80
2016,06,15,12,02,14.80
2016,06,15,12,03,14.90
2016,06,15,12,04,14.90
2016,06,15,12,05,14.90
2016,06,15,12,06,15.00
2016,06,15,12,07,14.90
2016,06,15,12,08,14.90
2016,06,15,12,09,14.90
2016,06,15,12,10,14.90
2016,06,15,12,11,14.80
2016,06,15,12,12,14.80
2016,06,15,12,13,14.80
2016,06,15,12,14,14.80
2016,06,15,12,15,14.80
2016,06,15,12,16,14.80
2016,06,15,12,17,14.80
2016,06,15,12,18,14.80
2016,06,15,12,19,14.80
2016,06,15,12,20,14.80
2016,06,15,12,21,14.70
2016,06,15,12,22,14.70
2016,06,15,12,23,14.70
2016,06,15,12,24,14.60
2016,06,15,12,25,14.60
2016,06,15,12,26,14.50
2016,06,15,12,27,14.50
2016,06,15,12,28,14.50
2016,06,15,12,29,14.50
2016,06,15,12,30,14.60
2016,06,15,12,31,14.70
2016,06,15,12,32,14.70
2016,06,15,12,33,14.80
2016,06,15,12,34,14.80
2016,06,15,12,35,14.90
2016,06,15,12,36,15.00
2016,06,15,12,37,15.00
2016,06,15,12,38,15.10
2016,06,15,12,39,15.10
2016,06,15,12,40,15.20
2016,06,15,12,41,15.20
2016,06,15,12,42,15.20
2016,06,15,12,43,15.20
2016,06,15,12,44,15.20
2016,06,15,12,45,15.20
2016,06,15,12,46,15.20
2016,06,15,12,47,15.30
2016,06,15,12,48,15.30
2016,06,15,12,49,15.30
2016,06,15,12,50,15.40
2016,06,15,12,51,15.40
2016,06,15,12,52,15.50
2016,06,15,12,54,15.50
2016,06,15,12,56,15.60
2016,06,15,12,57,15.60
2016,06,15,12,58,15.70
2016,06,15,12,59,15.80
2016,06,15,13,01,15.80
2016,06,15,13,02,15.90
2016,06,15,13,03,15.90
2016,06,15,13,04,16.10
2016,06,15,13,06,15.90
2016,06,15,13,07,16.10
2016,06,15,13,08,16.10
2016,06,15,13,09,16.10
2016,06,15,13,11,16.20
2016,06,15,13,12,16.20
2016,06,15,13,13,16.20
2016,06,15,13,14,16.20
2016,06,15,13,16,16.20
2016,06,15,13,17,16.20
2016,06,15,13,18,16.20
2016,06,15,13,19,16.20
2016,06,15,13,21,16.30
2016,06,15,13,22,16.30
2016,06,15,13,23,16.30
2016,06,15,13,24,16.40
2016,06,15,13,26,16.40
2016,06,15,13,27,16.40
2016,06,15,13,28,16.40
2016,06,15,13,29,16.60
2016,06,15,13,31,16.60
2016,06,15,13,32,16.60
2016,06,15,13,33,16.60
2016,06,15,13,34,16.60
2016,06,15,13,36,16.70
2016,06,15,13,37,16.70
2016,06,15,13,38,16.60
2016,06,15,13,39,16.60
2016,06,15,13,41,16.40
2016,06,15,13,42,16.40
2016,06,15,13,43,16.40
2016,06,15,13,44,16.40
2016,06,15,13,46,16.30
2016,06,15,13,47,16.30
2016,06,15,13,48,16.20
2016,06,15,13,49,16.10
2016,06,15,13,51,15.90
2016,06,15,13,52,15.80
2016,06,15,13,53,15.80
2016,06,15,13,54,15.70
2016,06,15,13,56,15.70
2016,06,15,13,57,15.70
2016,06,15,13,58,15.60
2016,06,15,13,59,15.60
2016,06,15,14,01,15.50
2016,06,15,14,02,15.50
2016,06,15,14,03,15.40
2016,06,15,14,04,15.40
2016,06,15,14,06,15.50
2016,06,15,14,07,15.50
2016,06,15,14,08,15.50
2016,06,15,14,09,15.50
2016,06,15,14,10,15.50
2016,06,15,14,11,15.50
2016,06,15,14,12,15.50
2016,06,15,14,13,15.60
2016,06,15,14,14,15.80
2016,06,15,14,15,15.80
2016,06,15,14,16,15.90
2016,06,15,14,17,15.90
2016,06,15,14,18,16.10
2016,06,15,14,19,16.10
2016,06,15,14,20,16.10
2016,06,15,14,21,16.10
2016,06,15,14,22,16.10
2016,06,15,14,23,16.10
2016,06,15,14,24,16.10
2016,06,15,14,25,16.10
2016,06,15,14,26,16.10
2016,06,15,14,27,16.10
2016,06,15,14,28,15.90
2016,06,15,14,29,15.80
2016,06,15,14,30,15.80
2016,06,15,14,31,15.80
2016,06,15,14,32,15.80
2016,06,15,14,33,15.70
2016,06,15,14,34,15.60
2016,06,15,14,35,15.60
2016,06,15,14,36,15.50
2016,06,15,14,37,15.40
2016,06,15,14,38,15.40
2016,06,15,14,39,15.30
2016,06,15,14,40,15.30
2016,06,15,14,41,15.30
2016,06,15,14,42,15.30
2016,06,15,14,43,15.40
2016,06,15,14,44,15.40
2016,06,15,14,45,15.40
2016,06,15,14,46,15.40
2016,06,15,14,47,15.40
2016,06,15,14,48,15.40
2016,06,15,14,49,15.40
2016,06,15,14,50,15.40
2016,06,15,14,51,15.50
2016,06,15,14,52,15.50
2016,06,15,14,53,15.50
2016,06,15,14,54,15.50
2016,06,15,14,55,15.50
2016,06,15,14,56,15.60
2016,06,15,14,57,15.60
2016,06,15,14,58,15.70
2016,06,15,14,59,15.80
2016,06,15,15,00,15.80
2016,06,15,15,01,15.80
2016,06,15,15,02,15.80
2016,06,15,15,03,15.80
2016,06,15,15,04,15.80
2016,06,15,15,06,15.80
2016,06,15,15,07,15.80
2016,06,15,15,08,15.80
2016,06,15,15,09,15.90
2016,06,15,15,10,15.90
2016,06,15,15,11,16.10
2016,06,15,15,12,16.10
2016,06,15,15,13,16.20
2016,06,15,15,14,16.30
2016,06,15,15,15,16.40
2016,06,15,15,16,16.60
2016,06,15,15,17,16.70
2016,06,15,15,18,16.70
2016,06,15,15,19,16.70
2016,06,15,15,20,16.80
2016,06,15,15,21,16.80
2016,06,15,15,22,16.80
2016,06,15,15,23,16.90
2016,06,15,15,24,16.90
2016,06,15,15,25,16.80
2016,06,15,15,26,16.70
2016,06,15,15,27,16.70
2016,06,15,15,28,16.70
2016,06,15,15,29,16.70
2016,06,15,15,30,16.60
2016,06,15,15,31,16.60
2016,06,15,15,32,16.70
2016,06,15,15,33,16.70
2016,06,15,15,34,16.70
2016,06,15,15,35,16.70
2016,06,15,15,36,16.70
2016,06,15,15,37,16.70
2016,06,15,15,38,16.70
2016,06,15,15,39,16.70
2016,06,15,15,41,16.70
2016,06,15,15,42,16.70
2016,06,15,15,43,16.70
2016,06,15,15,44,16.70
2016,06,15,15,46,16.40
2016,06,15,15,47,16.40
2016,06,15,15,48,16.40
2016,06,15,15,49,16.40
2016,06,15,15,51,16.40
2016,06,15,15,52,16.40
2016,06,15,15,53,16.40
2016,06,15,15,54,16.40
2016,06,15,15,56,16.30
2016,06,15,15,57,16.30
2016,06,15,15,58,16.30
2016,06,15,15,59,16.30
2016,06,15,16,01,16.40
2016,06,15,16,02,16.40
2016,06,15,16,03,16.40
2016,06,15,16,04,16.40
2016,06,15,16,06,16.60
2016,06,15,16,07,16.70
2016,06,15,16,08,16.70
2016,06,15,16,09,16.80
2016,06,15,16,11,16.70
2016,06,15,16,12,16.70
2016,06,15,16,13,16.60
2016,06,15,16,14,16.40
2016,06,15,16,16,16.40
2016,06,15,16,17,16.40
2016,06,15,16,18,16.40
2016,06,15,16,19,16.40
2016,06,15,16,21,16.60
2016,06,15,16,22,16.60
2016,06,15,16,23,16.60
2016,06,15,16,24,16.60
2016,06,15,16,26,16.70
2016,06,15,16,27,16.70
2016,06,15,16,28,16.70
2016,06,15,16,29,16.70
2016,06,15,16,31,16.80
2016,06,15,16,32,16.80
2016,06,15,16,33,16.80
2016,06,15,16,34,16.80
2016,06,15,16,36,16.80
2016,06,15,16,37,16.80
2016,06,15,16,38,16.80
2016,06,15,16,39,16.80
2016,06,15,16,41,16.90
2016,06,15,16,42,16.90
2016,06,15,16,43,16.80
2016,06,15,16,44,16.80
2016,06,15,16,46,16.90
2016,06,15,16,47,16.90
2016,06,15,16,48,16.90
2016,06,15,16,49,17.00
2016,06,15,16,51,17.00
2016,06,15,16,52,17.10
2016,06,15,16,53,17.10
2016,06,15,16,54,17.10
2016,06,15,16,55,17.00
2016,06,15,16,56,17.00
2016,06,15,16,57,17.00
2016,06,15,16,58,17.00
2016,06,15,16,59,16.90
2016,06,15,17,00,17.00
2016,06,15,17,01,17.00
2016,06,15,17,02,17.00
2016,06,15,17,03,16.90
2016,06,15,17,04,17.00
2016,06,15,17,06,16.80
2016,06,15,17,07,16.70
2016,06,15,17,08,16.70
2016,06,15,17,09,16.70
2016,06,15,17,10,16.70
2016,06,15,17,11,16.70
2016,06,15,17,12,16.70
2016,06,15,17,13,16.70
2016,06,15,17,14,16.70
2016,06,15,17,15,16.70
2016,06,15,17,16,16.70
2016,06,15,17,17,16.70
2016,06,15,17,18,16.70
2016,06,15,17,19,16.70
2016,06,15,17,20,16.70
2016,06,15,17,21,16.70
2016,06,15,17,22,16.70
2016,06,15,17,23,16.70
2016,06,15,17,24,16.70
2016,06,15,17,25,16.70
2016,06,15,17,26,16.70
2016,06,15,17,27,16.70
2016,06,15,17,28,16.70
2016,06,15,17,29,16.70
2016,06,15,17,30,16.70
2016,06,15,17,31,16.70
2016,06,15,17,32,16.70
2016,06,15,17,33,16.70
2016,06,15,17,34,16.70
2016,06,15,17,35,16.70
2016,06,15,17,36,16.60
2016,06,15,17,37,16.40
2016,06,15,17,38,16.30
2016,06,15,17,39,16.30
2016,06,15,17,40,16.30
2016,06,15,17,41,16.30
2016,06,15,17,42,16.30
2016,06,15,17,43,16.30
2016,06,15,17,44,16.30
2016,06,15,17,45,16.30
2016,06,15,17,46,16.40
2016,06,15,17,47,16.40
2016,06,15,17,48,16.40
2016,06,15,17,49,16.40
2016,06,15,17,50,16.60
2016,06,15,17,51,16.70
2016,06,15,17,52,16.70
2016,06,15,17,53,16.80
2016,06,15,17,54,16.90
2016,06,15,17,55,16.90
2016,06,15,17,56,17.00
2016,06,15,17,57,17.00
2016,06,15,17,58,16.90
2016,06,15,17,59,16.90
2016,06,15,18,00,16.90
2016,06,15,18,01,17.00
2016,06,15,18,02,17.00
2016,06,15,18,03,17.00
2016,06,15,18,04,17.00
2016,06,15,18,05,17.10
2016,06,15,18,06,17.10
2016,06,15,18,07,17.10
2016,06,15,18,08,17.10
2016,06,15,18,09,17.10
2016,06,15,18,10,17.10
2016,06,15,18,11,17.10
2016,06,15,18,12,17.10
2016,06,15,18,13,17.10
2016,06,15,18,14,17.00
2016,06,15,18,15,17.00
2016,06,15,18,16,17.00
2016,06,15,18,17,17.00
2016,06,15,18,18,17.00
2016,06,15,18,19,17.00
2016,06,15,18,20,17.00
2016,06,15,18,21,17.00
2016,06,15,18,22,17.00
2016,06,15,18,23,17.00
2016,06,15,18,24,17.10
2016,06,15,18,26,17.10
2016,06,15,18,27,17.20
2016,06,15,18,28,17.20
2016,06,15,18,29,17.30
2016,06,15,18,31,17.30
2016,06,15,18,32,17.30
2016,06,15,18,33,17.40
2016,06,15,18,34,17.40
2016,06,15,18,36,17.60
2016,06,15,18,37,17.60
2016,06,15,18,38,17.70
2016,06,15,18,39,17.70
2016,06,15,18,41,17.70
2016,06,15,18,42,17.70
2016,06,15,18,43,17.70
2016,06,15,18,44,17.60
2016,06,15,18,46,17.40
2016,06,15,18,47,17.40
2016,06,15,18,48,17.30
2016,06,15,18,49,17.30
2016,06,15,18,51,17.20
2016,06,15,18,52,17.10
2016,06,15,18,53,17.00
2016,06,15,18,54,16.90
2016,06,15,18,56,16.70
2016,06,15,18,57,16.70
2016,06,15,18,58,16.60
2016,06,15,18,59,16.40
2016,06,15,19,01,16.30
2016,06,15,19,02,16.30
2016,06,15,19,03,16.20
2016,06,15,19,04,16.20
2016,06,15,19,06,16.10
2016,06,15,19,07,16.20
2016,06,15,19,08,16.10
2016,06,15,19,09,16.10
2016,06,15,19,11,16.10
2016,06,15,19,12,16.10
2016,06,15,19,13,16.10
2016,06,15,19,14,16.10
2016,06,15,19,16,16.20
2016,06,15,19,17,16.10
2016,06,15,19,18,16.10
2016,06,15,19,19,16.10
2016,06,15,19,21,16.10
2016,06,15,19,22,16.20
2016,06,15,19,23,16.20
2016,06,15,19,24,16.20
2016,06,15,19,26,16.10
2016,06,15,19,27,16.10
2016,06,15,19,28,16.10
2016,06,15,19,29,16.10
2016,06,15,19,31,16.20
2016,06,15,19,32,16.20
2016,06,15,19,33,16.20
2016,06,15,19,34,16.20
2016,06,15,19,36,16.20
2016,06,15,19,37,16.30
2016,06,15,19,38,16.30
2016,06,15,19,39,16.30
2016,06,15,19,41,16.30
2016,06,15,19,42,16.30
2016,06,15,19,43,16.30
2016,06,15,19,44,16.30
2016,06,15,19,45,16.30
2016,06,15,19,46,16.30
2016,06,15,19,47,16.30
2016,06,15,19,48,16.40
2016,06,15,19,49,16.40
2016,06,15,19,50,16.40
2016,06,15,19,51,16.40
2016,06,15,19,52,16.40
2016,06,15,19,53,16.40
2016,06,15,19,54,16.40
2016,06,15,19,55,16.40
2016,06,15,19,56,16.40
2016,06,15,19,57,16.40
2016,06,15,19,58,16.30
2016,06,15,19,59,16.20
2016,06,15,20,00,16.10
2016,06,15,20,01,16.10
2016,06,15,20,02,16.10
2016,06,15,20,03,15.90
2016,06,15,20,04,15.80
2016,06,15,20,05,15.80
2016,06,15,20,06,15.80
2016,06,15,20,07,15.70
2016,06,15,20,08,15.70
2016,06,15,20,09,15.60
2016,06,15,20,10,15.60
2016,06,15,20,11,15.50
2016,06,15,20,12,15.50
2016,06,15,20,13,15.50
2016,06,15,20,14,15.40
2016,06,15,20,15,15.40
2016,06,15,20,16,15.40
2016,06,15,20,17,15.30
2016,06,15,20,18,15.30
2016,06,15,20,19,15.30
2016,06,15,20,20,15.30
2016,06,15,20,21,15.30
2016,06,15,20,22,15.20
2016,06,15,20,23,15.20
2016,06,15,20,24,15.10
2016,06,15,20,25,15.10
2016,06,15,20,26,15.00
2016,06,15,20,27,14.90
2016,06,15,20,28,14.90
2016,06,15,20,29,14.80
2016,06,15,20,30,14.80
2016,06,15,20,31,14.80
2016,06,15,20,32,14.80
2016,06,15,20,33,14.80
2016,06,15,20,34,14.70
2016,06,15,20,35,14.70
2016,06,15,20,36,14.70
2016,06,15,20,37,14.60
2016,06,15,20,38,14.60
2016,06,15,20,39,14.60
2016,06,15,20,40,14.50
2016,06,15,20,41,14.50
2016,06,15,20,42,14.50
2016,06,15,20,43,14.40
2016,06,15,20,44,14.40
2016,06,15,20,45,14.40
2016,06,15,20,46,14.30
2016,06,15,20,47,14.30
2016,06,15,20,48,14.30
2016,06,15,20,49,14.20
2016,06,15,20,50,14.20
2016,06,15,20,51,14.20
2016,06,15,20,52,14.20
2016,06,15,20,53,14.20